Terminal Aerodrome Forecast
Issued by NWS

Home | Current Version | Previous Version | Graphics & Text | Print | Product List | Glossary On
Versions: 1 2 3 4 5 6 7 8 9 10 11 12 13 14 15 16 17 18 19 20 21 22 23 24 25 26 27 28 29
000
FTUS45 KGGW 291700
TAFGDV
TAF
KGDV 291727Z 2918/3018 07012KT P6SM -SHRA BKN007 OVC015
     FM300300 11008KT P6SM -SHRA OVC008
     FM300600 05007KT 5SM -RA OVC007
     FM301200 05006KT P6SM -RA OVC004
      AMD LTD TO CLD VIS AND WIND=

USA.gov is the U.S. government's official web portal to all federal, state and local government web resources and services.